2023/10/16 00:00:00, 1.5,12.6
2023/10/16 00:10:00, 1.4,12.7
2023/10/16 00:20:00, 1.4,12.6
2023/10/16 00:30:00, 1.4,12.6
2023/10/16 00:40:00, 1.4,12.6
2023/10/16 00:50:00, 1.4,12.4
2023/10/16 01:00:00, 1.4,12.4
2023/10/16 01:10:00, 1.5,12.4
2023/10/16 01:20:00, 1.4,12.6
2023/10/16 01:30:00, 1.5,12.3
2023/10/16 01:40:00, 1.5,12.5
2023/10/16 01:50:00, 1.5,12.3
2023/10/16 02:00:00, 1.5,12.3
2023/10/16 02:10:00, 1.4,12.4
2023/10/16 02:20:00, 1.4,12.2
2023/10/16 02:30:00, 1.4,12.1
2023/10/16 02:40:00, 1.4,12.3
2023/10/16 02:50:00, 1.4,12.1
2023/10/16 03:00:00, 1.4,12.1
2023/10/16 03:10:00, 1.4,12.0
2023/10/16 03:20:00, 1.4,11.8
2023/10/16 03:30:00, 1.4,11.9
2023/10/16 03:40:00, 1.4,11.8
2023/10/16 03:50:00, 1.3,11.6
2023/10/16 04:00:00, 1.4,11.5
2023/10/16 04:10:00, 1.3,11.3
2023/10/16 04:20:00, 1.4,11.4
2023/10/16 04:30:00, 1.3,11.5
2023/10/16 04:40:00, 1.3,11.6
2023/10/16 04:50:00, 1.4,11.4
2023/10/16 05:00:00, 1.4,11.3
2023/10/16 05:10:00, 1.4,11.2
2023/10/16 05:20:00, 1.4,11.4
2023/10/16 05:30:00, 1.4,11.9
2023/10/16 05:40:00, 1.4,11.4
2023/10/16 05:50:00, 1.4,11.0
2023/10/16 06:00:00, 1.4,11.0
2023/10/16 06:10:00, 1.4,11.2
2023/10/16 06:20:00, 1.4,11.3
2023/10/16 06:30:00, 1.3,11.4
2023/10/16 06:40:00, 1.3,11.6
2023/10/16 06:50:00, 1.3,11.4
2023/10/16 07:00:00, 1.4,11.7
2023/10/16 07:10:00, 1.4,12.0
2023/10/16 07:20:00, 1.3,12.2
2023/10/16 07:30:00, 1.3,12.6
2023/10/16 07:40:00, 1.3,13.5
2023/10/16 07:50:00, 1.4,17.6
2023/10/16 08:00:00, 2.2,14.8
2023/10/16 08:10:00, 1.5,14.0
2023/10/16 08:20:00, 1.1,17.5
2023/10/16 08:30:00, 1.3,16.8
2023/10/16 08:40:00, 0.9,20.1
2023/10/16 08:50:00, 0.7,17.4
2023/10/16 09:00:00, 0.7,17.6
2023/10/16 09:10:00, 0.5,21.1
2023/10/16 09:20:00, 0.3,19.7
2023/10/16 09:30:00, 0.4,17.3
2023/10/16 09:40:00, 0.5,17.6
2023/10/16 09:50:00, 0.4,18.1
2023/10/16 10:00:00, 0.5,17.7
2023/10/16 10:10:00, 0.5,18.0
2023/10/16 10:20:00, 0.2,19.8
2023/10/16 10:30:00, 0.3,19.5
2023/10/16 10:40:00, 0.5,18.0
2023/10/16 10:50:00, 0.4,19.5
2023/10/16 11:00:00, 0.1,20.7
2023/10/16 11:10:00, 0.2,20.8
2023/10/16 11:20:00, 0.0,22.0
2023/10/16 11:30:00, 0.1,21.3
2023/10/16 11:40:00, 0.2,20.8
2023/10/16 11:50:00, 0.4,20.3
2023/10/16 12:00:00, 0.3,20.8
2023/10/16 12:10:00, 0.4,19.7
2023/10/16 12:20:00, 0.5,19.3
2023/10/16 12:30:00, 0.5,18.8
2023/10/16 12:40:00, 0.3,20.4
2023/10/16 12:50:00, 0.5,18.9
2023/10/16 13:00:00, 0.6,18.4
2023/10/16 13:10:00, 0.6,18.2
2023/10/16 13:20:00, 0.4,19.0
2023/10/16 13:30:00, 0.3,19.8
2023/10/16 13:40:00, 0.3,19.6
2023/10/16 13:50:00, 0.5,19.3
2023/10/16 14:00:00, 0.6,18.7
2023/10/16 14:10:00, 0.4,20.2
2023/10/16 14:20:00, 0.4,19.6
2023/10/16 14:30:00, 0.6,18.6
2023/10/16 14:40:00, 0.6,18.5
2023/10/16 14:50:00, 0.6,18.4
2023/10/16 15:00:00, 0.6,18.1
2023/10/16 15:10:00, 0.7,17.6
2023/10/16 15:20:00, 0.7,18.0
2023/10/16 15:30:00, 0.7,18.4
2023/10/16 15:40:00, 0.7,18.2
2023/10/16 15:50:00, 0.7,18.0
2023/10/16 16:00:00, 0.7,17.9
2023/10/16 16:10:00, 0.7,17.7
2023/10/16 16:20:00, 0.7,17.3
2023/10/16 16:30:00, 0.7,16.8
2023/10/16 16:40:00, 0.7,16.9
2023/10/16 16:50:00, 0.6,16.4
2023/10/16 17:00:00, 0.6,15.7
2023/10/16 17:10:00, 0.6,15.0
2023/10/16 17:20:00, 0.8,14.5
2023/10/16 17:30:00, 0.8,13.9
2023/10/16 17:40:00, 0.8,13.6
2023/10/16 17:50:00, 0.8,13.5
2023/10/16 18:00:00, 0.8,13.6
2023/10/16 18:10:00, 0.8,14.0
2023/10/16 18:20:00, 0.8,13.8
2023/10/16 18:30:00, 0.9,13.8
2023/10/16 18:40:00, 0.9,14.6
2023/10/16 18:50:00, 0.9,14.8
2023/10/16 19:00:00, 0.8,14.5
2023/10/16 19:10:00, 0.8,14.6
2023/10/16 19:20:00, 0.9,14.4
2023/10/16 19:30:00, 0.9,14.4
2023/10/16 19:40:00, 0.9,14.0
2023/10/16 19:50:00, 0.9,13.9
2023/10/16 20:00:00, 0.9,13.9
2023/10/16 20:10:00, 0.9,14.6
2023/10/16 20:20:00, 0.9,14.8
2023/10/16 20:30:00, 1.2,14.4
2023/10/16 20:40:00, 1.4,14.1
2023/10/16 20:50:00, 1.4,13.9
2023/10/16 21:00:00, 1.4,13.9
2023/10/16 21:10:00, 1.4,13.8
2023/10/16 21:20:00, 1.4,13.8
2023/10/16 21:30:00, 1.4,13.7
2023/10/16 21:40:00, 1.4,13.6
2023/10/16 21:50:00, 1.5,13.6
2023/10/16 22:00:00, 1.6,13.4
2023/10/16 22:10:00, 1.7,13.4
2023/10/16 22:20:00, 1.6,13.4
2023/10/16 22:30:00, 1.6,13.4
2023/10/16 22:40:00, 1.6,13.2
2023/10/16 22:50:00, 1.6,13.4
2023/10/16 23:00:00, 1.7,13.4
2023/10/16 23:10:00, 1.6,13.1
2023/10/16 23:20:00, 1.5,13.4
2023/10/16 23:30:00, 1.4,13.4
2023/10/16 23:40:00, 1.6,13.2
2023/10/16 23:50:00, 1.4,13.2
